datetime,average canal gage height
2019-02-01,72.56
2019-02-02,72.57
2019-02-03,72.58
2019-02-04,72.66
2019-02-05,72.72
2019-02-06,72.75
2019-02-07,72.77
2019-02-08,72.8
2019-02-09,72.85
2019-02-10,72.89
2019-02-11,72.94
2019-02-12,72.98
2019-02-13,73.04
2019-02-14,73.18
2019-02-15,73.25
2019-02-16,73.31
2019-02-17,73.37
2019-02-18,73.43
2019-02-19,73.49
2019-02-20,73.55
2019-02-21,73.62
2019-02-22,73.67
2019-02-23,73.73
2019-02-24,73.8
2019-02-25,73.86
2019-02-26,73.95
2019-02-27,74.04
2019-02-28,74.11
2019-03-01,74.16
2019-03-02,74.22
2019-03-03,74.28
2019-03-04,74.34
2019-03-05,74.39
2019-03-06,74.46
2019-03-07,74.52
2019-03-08,74.56
2019-03-09,74.61
2019-03-10,74.67
2019-03-11,74.72
2019-03-12,74.77
2019-03-13,74.81
2019-03-14,74.86
2019-03-15,74.91
2019-03-16,74.97
2019-03-17,75.04
2019-03-18,75.11
2019-03-19,75.18
2019-03-20,75.25
2019-03-21,75.3
2019-03-22,75.36
2019-03-23,75.41
2019-03-24,75.47
2019-03-25,75.38
2019-03-26,74.69
2019-03-27,73.97
2019-03-28,73.3
2019-03-29,72.88
2019-03-30,72.9
2019-03-31,72.98
2019-04-01,73.07
2019-04-02,73.16
2019-04-03,72.94
2019-04-04,72.52
2019-04-05,72.03
2019-04-06,71.9
2019-04-07,71.99
2019-04-08,72.11
2019-04-09,72.18
2019-04-10,72.24
2019-04-11,72.28
2019-04-12,72.33
2019-04-13,72.37
2019-04-14,72.41
2019-04-15,72.48
2019-04-16,72.53
2019-04-17,72.56
2019-04-18,72.59
2019-04-19,72.62
2019-04-20,72.58
2019-04-21,72.68
2019-04-22,72.69
2019-04-23,72.34
2019-04-24,72.23
2019-04-25,72.3
2019-04-26,72.37
2019-04-27,72.42
2019-04-28,72.45
2019-04-29,72.51
2019-04-30,72.83
2019-05-01,73.19
2019-05-02,73.75
2019-05-03,73.48
2019-05-04,73.19
2019-05-05,73.08
2019-05-06,73.06
2019-05-07,72.81
2019-05-08,72.32
2019-05-09,71.66
2019-05-10,71.36
2019-05-11,71.37
2019-05-12,71.41
2019-05-13,71.47
2019-05-14,71.55
2019-05-15,71.63
2019-05-16,71.68
2019-05-17,71.71
2019-05-18,71.8
2019-05-19,71.83
2019-05-20,71.89
2019-05-21,71.95
2019-05-22,71.99
2019-05-23,72.02
2019-05-24,72.03
2019-05-25,72.06
2019-05-26,72.18
2019-05-27,72.25
2019-05-28,72.34
2019-05-29,72.43
2019-05-30,72.49
2019-05-31,72.54
2019-06-01,72.57
2019-06-02,72.6
2019-06-03,72.62
2019-06-04,72.64
2019-06-05,73.44
2019-06-06,73.85
2019-06-07,73.42
2019-06-08,73.37
2019-06-09,73.37
2019-06-10,73.59
2019-06-11,73.89
2019-06-12,74.04
2019-06-13,74.33
2019-06-14,74.34
2019-06-15,74.35
2019-06-16,74.38
2019-06-17,74.37
2019-06-18,74.13
2019-06-19,73.6
2019-06-20,72.85
2019-06-21,73.83
2019-06-22,74.5
2019-06-23,74.75
2019-06-24,74.41
2019-06-25,73.14
2019-06-26,72.17
2019-06-27,72.05
2019-06-28,72.54
2019-06-29,73.09
2019-06-30,73.28
2019-07-01,72.94
2019-07-02,72.29
2019-07-03,71.72
2019-07-04,71.83
2019-07-05,71.97
2019-07-06,72.07
2019-07-07,72.13
2019-07-08,72.15
2019-07-09,72.16
2019-07-10,72.17
2019-07-11,72.18
2019-07-12,72.17
2019-07-13,72.16
2019-07-14,72.15
2019-07-15,72.15
2019-07-16,72.13
2019-07-17,72.12
2019-07-18,72.1
2019-07-19,72.08
2019-07-20,72.06
2019-07-21,72.05
2019-07-22,72.03
2019-07-23,72.01
2019-07-24,71.99
2019-07-25,71.97
2019-07-26,71.95
2019-07-27,71.92
2019-07-28,71.9
2019-07-29,71.88
2019-07-30,71.86
2019-07-31,71.84
2019-08-01,71.83
2019-08-02,71.81
2019-08-03,71.8
2019-08-04,71.79
2019-08-05,71.78
2019-08-06,71.77
2019-08-07,71.76
2019-08-08,71.74
2019-08-09,71.73
2019-08-10,71.77
2019-08-11,71.79
2019-08-12,71.78
2019-08-13,71.78
2019-08-14,71.77
2019-08-15,71.76
2019-08-16,71.75
2019-08-17,71.74
2019-08-18,71.74
2019-08-19,71.74
2019-08-20,71.73
2019-08-21,71.73
2019-08-22,71.73
2019-08-23,71.73
2019-08-24,71.73
2019-08-25,71.73
2019-08-26,71.73
2019-08-27,71.72
2019-08-28,71.72
2019-08-29,71.73
2019-08-30,71.72
2019-08-31,71.72
2019-09-01,71.72
2019-09-02,71.72
2019-09-03,71.71
2019-09-04,71.71
2019-09-05,71.72
2019-09-06,71.72
2019-09-07,71.72
2019-09-08,71.71
2019-09-09,71.72
2019-09-10,71.72
2019-09-11,71.72
2019-09-12,71.73
2019-09-13,71.73
2019-09-14,71.73
2019-09-15,71.74
2019-09-16,71.8
2019-09-17,71.82
2019-09-18,71.86
2019-09-19,71.88
2019-09-20,71.9
2019-09-21,71.92
2019-09-22,71.94
2019-09-23,71.96
2019-09-24,71.99
2019-09-25,72.02
2019-09-26,72.04
2019-09-27,72.06
2019-09-28,72.08
2019-09-29,72.11
2019-09-30,72.14
2019-10-01,72.17
2019-10-02,72.21
2019-10-03,72.24
2019-10-04,72.28
2019-10-05,72.32
2019-10-06,72.36
2019-10-07,72.39
2019-10-08,72.43
2019-10-09,72.47
2019-10-10,72.51
2019-10-11,72.55
2019-10-12,72.58
2019-10-13,72.62
2019-10-14,72.67
2019-10-15,72.71
2019-10-16,72.75
2019-10-17,72.78
2019-10-18,72.83
2019-10-19,72.89
2019-10-20,72.94
2019-10-21,72.98
2019-10-22,73.02
2019-10-23,73.08
2019-10-24,73.14
2019-10-25,73.2
2019-10-26,73.27
2019-10-27,73.34
2019-10-28,73.39
2019-10-29,73.45
2019-10-30,73.52
2019-10-31,73.57
2019-11-01,73.62
2019-11-02,73.68
2019-11-03,73.74
2019-11-04,73.79
2019-11-05,73.84
2019-11-06,73.9
2019-11-07,73.95
2019-11-08,73.99
2019-11-09,74.04
2019-11-10,74.09
2019-11-11,74.14
2019-11-12,74.18
2019-11-13,74.22
2019-11-14,74.26
2019-11-15,74.3
2019-11-16,74.33
2019-11-17,74.36
2019-11-18,74.39
2019-11-19,74.42
2019-11-20,74.44
2019-11-21,74.48
2019-11-22,74.5
2019-11-23,74.53
2019-11-24,74.56
2019-11-25,74.61
2019-11-26,74.71
2019-11-27,74.81
2019-11-28,74.9
2019-11-29,75.0
2019-11-30,75.11
2019-12-01,75.22
2019-12-02,75.31
2019-12-03,75.39
2019-12-04,75.46
2019-12-05,75.52
2019-12-06,75.56
2019-12-07,75.6
2019-12-08,75.63
2019-12-09,75.64
2019-12-10,75.61
2019-12-11,75.58
2019-12-12,75.56
2019-12-13,75.57
2019-12-14,75.58
2019-12-15,75.59
2019-12-16,75.59
2019-12-17,75.57
2019-12-18,75.54
2019-12-19,75.52
2019-12-20,75.51
2019-12-21,75.5
2019-12-22,75.49
2019-12-23,75.49
2019-12-24,75.51
2019-12-25,75.53
2019-12-26,75.55
2019-12-27,75.57
2019-12-28,75.58
2019-12-29,75.6
2019-12-30,75.62
2019-12-31,75.63
2020-01-01,75.66
2020-01-02,75.68
2020-01-03,75.7
2020-01-04,75.72
2020-01-05,75.74
2020-01-06,75.76
2020-01-07,75.77
2020-01-08,75.78
2020-01-09,75.8
2020-01-10,75.82
2020-01-11,75.84
2020-01-12,75.87
2020-01-13,75.89
2020-01-14,75.92
2020-01-15,75.94
2020-01-16,75.98
2020-01-17,76.0
2020-01-18,76.02
2020-01-19,76.04
2020-01-20,76.07
2020-01-21,76.1
2020-01-22,76.12
2020-01-23,76.15
2020-01-24,76.18
2020-01-25,76.21
2020-01-26,76.25
2020-01-27,76.28
2020-01-28,76.3
2020-01-29,76.33
2020-01-30,76.36
2020-01-31,76.39
2020-02-01,76.41
2020-02-02,76.42
2020-02-03,76.44
2020-02-04,76.46
2020-02-05,76.49
2020-02-06,76.51
2020-02-07,76.53
2020-02-08,76.55
2020-02-09,76.56
2020-02-10,76.58
2020-02-11,76.59
2020-02-12,76.6
2020-02-13,76.6
2020-02-14,76.6
2020-02-15,76.6
2020-02-16,76.61
2020-02-17,76.62
2020-02-18,76.63
2020-02-19,76.63
2020-02-20,76.64
2020-02-21,76.64
2020-02-22,76.65
2020-02-23,76.66
2020-02-24,76.67
2020-02-25,76.68
2020-02-26,76.69
2020-02-27,76.7
2020-02-28,76.71
2020-02-29,76.72
2020-03-01,76.74
2020-03-02,76.74
2020-03-03,76.76
2020-03-04,76.77
2020-03-05,76.79
2020-03-06,76.81
2020-03-07,76.83
2020-03-08,76.86
2020-03-09,76.88
2020-03-10,76.9
2020-03-11,76.61
2020-03-12,75.45
2020-03-13,75.27
2020-03-14,75.31
2020-03-15,75.36
2020-03-16,75.39
2020-03-17,75.02
2020-03-18,73.72
2020-03-19,73.59
2020-03-20,73.65
2020-03-21,73.71
2020-03-22,73.76
2020-03-23,73.81
2020-03-24,73.86
2020-03-25,73.92
2020-03-26,73.97
2020-03-27,74.01
2020-03-28,74.06
2020-03-29,74.11
2020-03-30,73.79
2020-03-31,72.32
2020-04-01,71.67
2020-04-02,71.72
2020-04-03,71.74
2020-04-04,71.75
2020-04-05,71.45
2020-04-06,71.15
2020-04-07,71.17
2020-04-08,71.23
2020-04-09,71.31
2020-04-10,71.4
2020-04-11,71.5
2020-04-12,71.6
2020-04-13,71.66
2020-04-14,71.7
2020-04-15,71.74
2020-04-16,71.8
2020-04-17,71.85
2020-04-18,71.9
2020-04-19,71.95
2020-04-20,72.0
2020-04-21,72.05
2020-04-22,72.1
2020-04-23,72.15
2020-04-24,72.2
2020-04-25,72.25
2020-04-26,72.3
2020-04-27,72.34
2020-04-28,72.39
2020-04-29,72.44
2020-04-30,72.47
2020-05-01,72.52
2020-05-02,72.55
2020-05-03,72.57
2020-05-04,72.59
2020-05-05,72.65
2020-05-06,72.7
2020-05-07,72.74
2020-05-08,72.77
2020-05-09,72.8
2020-05-10,72.84
2020-05-11,72.87
2020-05-12,72.89
2020-05-13,72.94
2020-05-14,72.97
2020-05-15,73.0
2020-05-16,73.04
2020-05-17,73.08
2020-05-18,73.13
2020-05-19,73.17
2020-05-20,72.86
2020-05-21,71.94
2020-05-22,71.74
2020-05-23,71.8
2020-05-24,71.84
2020-05-25,71.87
2020-05-26,71.89
2020-05-27,71.92
2020-05-28,71.94
2020-05-29,71.95
2020-05-30,71.97
2020-05-31,71.98
2020-06-01,71.86
2020-06-02,71.33
2020-06-03,71.31
2020-06-04,71.35
2020-06-05,71.38
2020-06-06,71.39
2020-06-07,71.44
2020-06-08,71.49
2020-06-09,71.52
2020-06-10,71.55
2020-06-11,71.6
2020-06-12,71.6
2020-06-13,71.58
2020-06-14,71.59
2020-06-15,71.59
2020-06-16,71.58
2020-06-17,71.6
2020-06-18,71.61
2020-06-19,71.6
2020-06-20,71.59
2020-06-21,71.58
2020-06-22,71.58
2020-06-23,71.57
2020-06-24,71.56
2020-06-25,71.55
2020-06-26,71.54
2020-06-27,71.51
2020-06-28,71.47
2020-06-29,71.46
2020-06-30,71.45
2020-07-01,71.44
2020-07-02,71.42
2020-07-03,71.41
2020-07-04,71.38
2020-07-05,71.36
2020-07-06,71.34
2020-07-07,71.32
2020-07-08,71.31
2020-07-09,71.29
2020-07-10,71.27
2020-07-11,71.25
2020-07-12,71.22
2020-07-13,71.2
2020-07-14,71.18
2020-07-15,71.16
2020-07-16,71.14
2020-07-17,71.1
2020-07-18,71.08
2020-07-19,71.05
2020-07-20,71.63
2020-07-21,72.81
2020-07-22,72.6
2020-07-23,72.41
2020-07-24,72.06
2020-07-25,71.76
2020-07-26,71.71
2020-07-27,72.23
2020-07-28,73.35
2020-07-29,72.91
2020-07-30,72.59
2020-07-31,72.32
2020-08-01,72.26
2020-08-02,72.2
2020-08-03,72.44
2020-08-04,73.01
2020-08-05,72.4
2020-08-06,72.26
2020-08-07,72.18
2020-08-08,72.0
2020-08-09,71.97
2020-08-10,71.93
2020-08-11,71.9
2020-08-12,71.87
2020-08-13,71.84
2020-08-14,71.82
2020-08-15,71.8
2020-08-16,71.77
2020-08-17,71.75
2020-08-18,71.73
2020-08-19,71.7
2020-08-20,71.68
2020-08-21,71.65
2020-08-22,71.63
2020-08-23,71.61
2020-08-24,71.59
2020-08-25,71.57
2020-08-26,71.55
2020-08-27,71.53
2020-08-28,71.5
2020-08-29,71.48
2020-08-30,71.44
2020-08-31,71.42
2020-09-01,71.39
2020-09-02,71.37
2020-09-03,71.34
2020-09-04,71.31
2020-09-05,71.29
2020-09-06,71.26
2020-09-07,71.24
2020-09-08,71.21
2020-09-09,71.19
2020-09-10,71.16
2020-09-11,71.14
2020-09-12,71.12
2020-09-13,71.1
2020-09-14,71.08
2020-09-15,71.05
2020-09-16,71.03
2020-09-17,71.0
2020-09-18,70.98
2020-09-19,70.96
2020-09-20,70.94
2020-09-21,70.93
2020-09-22,70.91
2020-09-23,70.9
2020-09-24,70.88
2020-09-25,70.86
2020-09-26,70.84
2020-09-27,70.83
2020-09-28,70.82
2020-09-29,70.8
2020-09-30,70.79
2020-10-01,70.77
2020-10-02,70.76
2020-10-03,70.74
2020-10-04,70.73
2020-10-05,70.71
2020-10-06,70.7
2020-10-07,70.68
2020-10-08,70.67
2020-10-09,70.65
2020-10-10,70.64
2020-10-11,70.63
2020-10-12,70.61
2020-10-13,70.59
2020-10-14,70.58
2020-10-15,70.57
2020-10-16,70.55
2020-10-17,70.54
2020-10-18,70.52
2020-10-19,70.51
2020-10-20,70.49
2020-10-21,70.47
2020-10-22,70.46
2020-10-23,70.45
2020-10-24,70.43
2020-10-25,70.41
2020-10-26,70.41
2020-10-27,70.41
2020-10-28,70.4
2020-10-29,70.4
2020-10-30,70.39
2020-10-31,70.39
2020-11-01,70.4
2020-11-02,70.39
2020-11-03,70.39
2020-11-04,70.39
2020-11-05,70.4
2020-11-06,70.4
2020-11-07,70.39
2020-11-08,70.39
2020-11-09,70.41
2020-11-10,70.4
2020-11-11,70.42
2020-11-12,70.43
2020-11-13,70.47
2020-11-14,70.46
2020-11-15,70.5
2020-11-16,70.52
2020-11-17,70.59
2020-11-18,70.55
2020-11-19,70.55
2020-11-20,70.55
2020-11-21,70.55
2020-11-22,70.55
2020-11-23,70.55
2020-11-24,70.55
2020-11-25,70.56
2020-11-26,70.56
2020-11-27,70.55
2020-11-28,70.55
2020-11-29,70.54
2020-11-30,70.53
2020-12-01,70.52
2020-12-02,70.51
2020-12-03,70.51
2020-12-04,70.49
2020-12-05,70.48
2020-12-06,70.48
2020-12-07,70.47
2020-12-08,70.46
2020-12-09,70.45
2020-12-10,70.44
2020-12-11,70.43
2020-12-12,70.44
2020-12-13,70.44
2020-12-14,70.45
2020-12-15,70.45
2020-12-16,70.45
2020-12-17,70.46
2020-12-18,70.45
2020-12-19,70.44
2020-12-20,70.43
2020-12-21,70.43
2020-12-22,70.42
2020-12-23,70.4
2020-12-24,70.39
2020-12-25,70.39
2020-12-26,70.39
2020-12-27,70.38
2020-12-28,70.37
2020-12-29,70.35
2020-12-30,70.35
2020-12-31,70.36
2021-01-01,70.36
2021-01-02,70.36
2021-01-03,70.35
2021-01-04,70.38
2021-01-05,70.36
2021-01-06,70.37
2021-01-07,70.35
2021-01-08,70.36
2021-01-09,70.35
2021-01-10,70.35
2021-01-11,70.34
2021-01-12,70.39
2021-01-13,70.36
2021-01-14,70.35
2021-01-15,70.35
2021-01-16,70.34
2021-01-17,70.34
2021-01-18,70.34
2021-01-19,70.33
2021-01-20,70.32
2021-01-21,70.32
2021-01-22,70.31
2021-01-23,70.3
2021-01-24,70.3
2021-01-25,70.3
2021-01-26,70.3
2021-01-27,70.29
2021-01-28,70.28
2021-01-29,70.28
2021-01-30,70.29
2021-01-31,70.33
2021-02-01,70.36
2021-02-02,70.28
2021-02-03,70.27
2021-02-04,70.27
2021-02-05,70.26
2021-02-06,70.26
2021-02-07,70.25
2021-02-08,70.26
2021-02-09,70.26
2021-02-10,70.26
2021-02-11,70.27
2021-02-12,70.26
2021-02-13,70.26
2021-02-14,70.29
2021-02-15,70.3
2021-02-16,70.28
2021-02-17,70.29
2021-02-18,70.3
2021-02-19,70.31
2021-02-20,70.3
2021-02-21,70.31
2021-02-22,70.31
2021-02-23,70.3
2021-02-24,70.3
2021-02-25,70.27
2021-02-26,70.24
2021-02-27,70.25
2021-02-28,70.27
2021-03-01,70.29
2021-03-02,70.26
2021-03-03,70.25
2021-03-04,70.34
2021-03-05,70.36
2021-03-06,70.25
2021-03-07,70.24
2021-03-08,70.27
2021-03-09,70.28
2021-03-10,70.25
2021-03-11,70.24
2021-03-12,70.25
2021-03-13,70.25
2021-03-14,70.3
2021-03-15,70.26
2021-03-16,70.31
2021-03-17,70.3
2021-03-18,70.33
2021-03-19,70.28
2021-03-20,70.26
2021-03-21,70.27
2021-03-22,70.26
2021-03-23,70.2704167
2021-03-24,70.2671875
2021-03-25,70.2604167
2021-03-26,70.2735417
2021-03-27,70.275
2021-03-28,70.2516667
2021-03-29,70.225625
2021-03-30,70.2469792
2021-03-31,70.2539583
2021-04-01,70.2523958
2021-04-02,70.2786458
2021-04-03,70.2666667
2021-04-04,70.2247917
2021-04-05,70.211875
2021-04-06,70.2189583
2021-04-07,70.1990625
2021-04-08,70.189375
2021-04-09,70.1804167
2021-04-10,70.1563542
2021-04-11,70.1596875
2021-04-12,70.1520833
2021-04-13,70.1
2021-04-14,70.1061458
2021-04-15,70.1092708
2021-04-16,70.0990625
2021-04-17,70.1065625
2021-04-18,70.0714583
2021-04-19,70.0528125
2021-04-20,70.0364583
2021-04-21,70.0138542
2021-04-22,69.9957292
2021-04-23,69.9873958
2021-04-24,69.9933333
2021-04-25,70.0025
2021-04-26,69.9917708
2021-04-27,69.9926042
2021-04-28,69.9877083
2021-04-29,69.9751042
2021-04-30,69.9607292
2021-05-01,69.9172917
2021-05-02,69.9136458
2021-05-03,69.9046875
2021-05-04,69.8994792
2021-05-05,69.9089583
2021-05-06,69.8813542
2021-05-07,69.8170833
2021-05-08,69.8188542
2021-05-09,69.79125
2021-05-10,69.7919792
2021-05-11,69.7805208
2021-05-12,69.7592708
2021-05-13,69.7390625
2021-05-14,69.7304167
2021-05-15,69.70375
2021-05-16,69.69375
2021-05-17,69.6641667
2021-05-18,69.6364583
2021-05-19,69.5875
2021-05-20,69.550625
2021-05-21,69.5461458
2021-05-22,69.5758333
2021-05-23,69.5748958
2021-05-24,69.5723958
2021-05-25,69.5461458
2021-05-26,69.5584375
2021-05-27,69.5135417
2021-05-28,69.5166667
2021-05-29,69.494375
2021-05-30,69.470625
2021-05-31,69.46
2021-06-01,69.441875
2021-06-02,69.4327083
2021-06-03,69.3903125
2021-06-04,69.3595833
2021-06-05,69.3051042
2021-06-06,69.2764583
2021-06-07,69.2658333
2021-06-08,69.2723958
2021-06-09,69.253125
2021-06-10,69.2822917
2021-06-11,69.3152083
2021-06-12,69.29125
2021-06-13,69.3070833
2021-06-14,69.2945833
2021-06-15,69.1834375
2021-06-16,69.1535417
2021-06-17,69.1428125
2021-06-18,69.1309375
2021-06-19,69.1192708
2021-06-20,69.1107292
2021-06-21,69.1104167
2021-06-22,69.0877083
2021-06-23,69.0725
2021-06-24,69.03875
2021-06-25,69.0036458
2021-06-26,68.9792708
2021-06-27,68.9689583
2021-06-28,68.9425
2021-06-29,68.9132292
2021-06-30,68.8816667
2021-07-01,68.8558333
2021-07-02,68.8447917
2021-07-03,68.8286458
2021-07-04,68.811875
2021-07-05,68.7963542
2021-07-06,68.7869792
2021-07-07,68.7609375
2021-07-08,68.7323958
2021-07-09,68.71625
2021-07-10,68.6948958
2021-07-11,68.6875
2021-07-12,68.6890625
2021-07-13,68.6967708
2021-07-14,68.7039583
2021-07-15,68.7069792
2021-07-16,68.690625
2021-07-17,68.6772917
2021-07-18,68.6722917
2021-07-19,68.660625
2021-07-20,68.648125
2021-07-21,68.6288764
2021-07-22,
2021-07-23,68.6020253
2021-07-24,68.5897917
2021-07-25,68.5797917
2021-07-26,68.5659375
2021-07-27,68.5697917
2021-07-28,68.586875
2021-07-29,68.5761458
2021-07-30,68.5715625
2021-07-31,68.5625
2021-08-01,68.5496875
2021-08-02,68.5266667
2021-08-03,68.5025
2021-08-04,68.4865625
2021-08-05,68.469375
2021-08-06,68.4664583
2021-08-07,68.4526042
2021-08-08,68.4296875
2021-08-09,68.4125
2021-08-10,68.3991667
2021-08-11,68.3941667
2021-08-12,68.3827083
2021-08-13,68.3775
2021-08-14,68.3790625
2021-08-15,68.3779167
2021-08-16,68.3638542
2021-08-17,68.3385417
2021-08-18,68.324375
2021-08-19,68.3175
2021-08-20,68.3047917
2021-08-21,68.2913542
2021-08-22,68.2777083
2021-08-23,68.2641667
2021-08-24,68.253125
2021-08-25,68.2342708
2021-08-26,68.2192708
2021-08-27,68.2057895
2021-08-28,68.1970833
2021-08-29,68.1858333
2021-08-30,68.1723958
2021-08-31,68.1659375
2021-09-01,68.1598958
2021-09-02,68.1592708
2021-09-03,68.1555208
2021-09-04,68.1459375
2021-09-05,68.1355208
2021-09-06,68.1197917
2021-09-07,68.0985417
2021-09-08,68.0805208
2021-09-09,68.0715625
2021-09-10,68.0829167
2021-09-11,68.08
2021-09-12,68.068125
2021-09-13,68.0554167
2021-09-14,68.0415625
2021-09-15,68.025625
2021-09-16,68.0157292
2021-09-17,68.0025
2021-09-18,68.0082292
2021-09-19,68.0134375
2021-09-20,68.0125
2021-09-21,68.0019792
2021-09-22,67.98625
2021-09-23,67.9770833
2021-09-24,67.9659375
2021-09-25,67.9559375
2021-09-26,67.9329167
2021-09-27,67.9254167
2021-09-28,67.9436458
2021-09-29,67.938125
2021-09-30,67.9210417
2021-10-01,67.9045833
2021-10-02,67.8973958
2021-10-03,67.8876042
2021-10-04,67.8804167
2021-10-05,67.8801042
2021-10-06,67.8686458
2021-10-07,67.8605952
2021-10-08,67.8533333
2021-10-09,67.8466667
2021-10-10,67.8267708
2021-10-11,67.7965625
2021-10-12,67.8063542
2021-10-13,67.8132292
2021-10-14,67.8108333
2021-10-15,67.82375
2021-10-16,67.843125
2021-10-17,67.8884375
2021-10-18,67.8891667
2021-10-19,67.9226042
2021-10-20,67.9480208
2021-10-21,67.9697917
2021-10-22,68.001875
2021-10-23,68.049375
2021-10-24,68.1120833
2021-10-25,68.0883333
2021-10-26,68.0794792
2021-10-27,68.0657292
2021-10-28,68.0702083
2021-10-29,68.065
2021-10-30,68.0721875
2021-10-31,68.0994792
2021-11-01,68.101875
2021-11-02,68.1065625
2021-11-03,68.1257895
2021-11-04,68.1401042
2021-11-05,68.1483333
2021-11-06,68.1645833
2021-11-07,68.1703125
2021-11-08,68.286875
2021-11-09,68.413125
2021-11-10,68.2895833
2021-11-11,68.2454167
2021-11-12,68.2367708
2021-11-13,68.2309375
2021-11-14,68.2242708
2021-11-15,68.2140625
2021-11-16,68.2059375
2021-11-17,68.3104167
2021-11-18,68.5141667
2021-11-19,68.4452083
2021-11-20,68.414375
2021-11-21,68.3665625
2021-11-22,68.3285417
2021-11-23,68.295625
2021-11-24,68.2633333
2021-11-25,68.2273958
2021-11-26,68.2017895
2021-11-27,68.18625
2021-11-28,68.1722917
2021-11-29,68.153125
2021-11-30,68.130625
2021-12-01,68.1128125
2021-12-02,68.0980208
2021-12-03,68.0852083
2021-12-04,68.0788542
2021-12-05,68.0697917
2021-12-06,68.0745833
2021-12-07,68.0838542
2021-12-08,68.093125
2021-12-09,68.1082292
2021-12-10,68.1197917
2021-12-11,68.1255208
2021-12-12,68.1240625
2021-12-13,68.1230682
2021-12-14,68.1275
2021-12-15,68.1201042
2021-12-16,68.12
2021-12-17,68.1204167
2021-12-18,68.1233333
2021-12-19,68.1294792
2021-12-20,68.1298958
2021-12-21,68.1267708
2021-12-22,68.139375
2021-12-23,68.1836458
2021-12-24,68.2148958
2021-12-25,68.2425
2021-12-26,68.2529167
2021-12-27,68.2653125
2021-12-28,68.2792708
2021-12-29,68.2955208
2021-12-30,68.309375
2021-12-31,68.32375
2022-01-01,68.3313542
2022-01-02,68.3390625
2022-01-03,68.35375
2022-01-04,68.3782292
2022-01-05,68.409375
2022-01-06,68.4277083
2022-01-07,68.4389583
2022-01-08,68.4404167
2022-01-09,68.4417708
2022-01-10,68.4446875
2022-01-11,68.45
2022-01-12,68.4566667
2022-01-13,68.4598958
2022-01-14,68.46
2022-01-15,68.4621875
2022-01-16,68.4689583
2022-01-17,68.4719792
2022-01-18,68.4794792
2022-01-19,68.4809375
2022-01-20,68.4889583
2022-01-21,68.4922917
2022-01-22,68.4966667
2022-01-23,68.4977083
2022-01-24,68.4979167
2022-01-25,68.4964583
2022-01-26,68.48875
2022-01-27,68.480625
2022-01-28,68.475625
2022-01-29,68.46625
2022-01-30,68.4605208
2022-01-31,68.466875
2022-02-01,68.463125
2022-02-02,68.4585417
2022-02-03,68.46
2022-02-04,68.4588542
2022-02-05,68.4570833
2022-02-06,68.4490625
2022-02-07,68.44
2022-02-08,68.4384375
2022-02-09,68.4303125
2022-02-10,68.43
2022-02-11,68.4228125
2022-02-12,68.42
2022-02-13,68.4188542
2022-02-14,68.3985417
2022-02-15,68.4095833
2022-02-16,68.4039583
2022-02-17,68.4102083
2022-02-18,68.4110417
2022-02-19,68.4055208
2022-02-20,68.3817708
2022-02-21,68.41375
2022-02-22,68.4246875
2022-02-23,68.4245833
2022-02-24,68.4252083
2022-02-25,68.4309375
2022-02-26,68.4409375
2022-02-27,68.4602083
2022-02-28,68.4609375
2022-03-01,68.4641667
2022-03-02,68.4919792
2022-03-03,68.4740625
2022-03-04,68.48
2022-03-05,68.4535417
2022-03-06,68.4921875
2022-03-07,69.2930208
2022-03-08,70.90375
2022-03-09,71.5072917
2022-03-10,71.9602083
2022-03-11,71.9578125
2022-03-12,72.0130208
2022-03-13,72.2264583
2022-03-14,72.17875
2022-03-15,72.1570833
2022-03-16,71.900625
2022-03-17,71.6903125
2022-03-18,71.5271875
2022-03-19,71.6567708
2022-03-20,71.8908333
2022-03-21,71.8626042
2022-03-22,71.7258333
2022-03-23,71.5373958
2022-03-24,71.4255208
2022-03-25,71.3723958
2022-03-26,71.3472917
2022-03-27,71.3108333
2022-03-28,71.2720833
2022-03-29,71.2395833
2022-03-30,71.2020833
2022-03-31,71.1847917
2022-04-01,71.1666667
2022-04-02,71.1425
2022-04-03,71.1176042
2022-04-04,71.1014583
2022-04-05,71.0955208
2022-04-06,71.0794792
2022-04-07,71.0642708
2022-04-08,71.0159375
2022-04-09,70.9988542
2022-04-10,70.9908333
2022-04-11,70.9673958
2022-04-12,70.9754167
2022-04-13,70.9836458
2022-04-14,70.968125
2022-04-15,70.9752083
2022-04-16,70.9810526
2022-04-17,71.010625
2022-04-18,71.0570833
2022-04-19,71.0040625
2022-04-20,71.0571875
2022-04-21,71.029375
2022-04-22,70.9984375
2022-04-23,70.9988542
2022-04-24,70.9919792
2022-04-25,70.98
2022-04-26,70.9525
2022-04-27,70.9380208
2022-04-28,70.9146875
2022-04-29,70.9147917
2022-04-30,70.87125
2022-05-01,70.8865625
2022-05-02,70.84125
2022-05-03,70.85125
2022-05-04,70.8457292
2022-05-05,70.85625
2022-05-06,70.8448958
2022-05-07,70.7892708
2022-05-08,70.7816667
2022-05-09,70.7787368
2022-05-10,70.770625
2022-05-11,70.7619792
2022-05-12,70.7604167
2022-05-13,70.7528125
2022-05-14,70.7369792
2022-05-15,70.7227083
2022-05-16,70.6979167
2022-05-17,70.6836458
2022-05-18,70.6515625
2022-05-19,70.591875
2022-05-20,70.6033333
2022-05-21,70.5780208
2022-05-22,70.5561458
2022-05-23,70.5297917
2022-05-24,70.5113542
2022-05-25,70.4821875
2022-05-26,70.4548958
2022-05-27,70.4264583
2022-05-28,70.4145833
2022-05-29,70.3604167
2022-05-30,70.335625
2022-05-31,70.331875
2022-06-01,70.3105208
2022-06-02,70.2907292
2022-06-03,70.2778125
2022-06-04,70.2985417
2022-06-05,70.3048958
2022-06-06,70.2463542
2022-06-07,70.2083333
2022-06-08,70.1847917
2022-06-09,70.1601042
2022-06-10,70.1302083
2022-06-11,70.0969565
2022-06-12,70.075625
2022-06-13,70.0494792
2022-06-14,70.0333333
2022-06-15,70.0138542
2022-06-16,69.98875
2022-06-17,69.9659375
2022-06-18,69.9409375
2022-06-19,69.9179167
2022-06-20,69.9054167
2022-06-21,69.891875
2022-06-22,69.8645833
2022-06-23,69.8304167
2022-06-24,69.8058333
2022-06-25,69.7748958
2022-06-26,69.7534375
2022-06-27,69.7229167
2022-06-28,69.6811458
2022-06-29,69.6489583
2022-06-30,69.6188542
2022-07-01,69.5933333
2022-07-02,69.5720833
2022-07-03,69.5517708
2022-07-04,69.5438542
2022-07-05,69.538125
2022-07-06,69.5176042
2022-07-07,69.4914737
2022-07-08,69.4665625
2022-07-09,69.4419792
2022-07-10,69.4171875
2022-07-11,69.3928125
2022-07-12,69.3692708
2022-07-13,69.3397917
2022-07-14,69.3113542
2022-07-15,69.2851042
2022-07-16,69.2552083
2022-07-17,69.2286458
2022-07-18,69.2016667
2022-07-19,69.1741667
2022-07-20,69.1505208
2022-07-21,69.1196875
2022-07-22,69.0935417
2022-07-23,69.0733333
2022-07-24,69.0539583
2022-07-25,69.0375
2022-07-26,69.0215625
2022-07-27,69.0038542
2022-07-28,68.9835417
2022-07-29,68.9634375
2022-07-30,68.9425
2022-07-31,68.926875
2022-08-01,68.9157292
2022-08-02,68.9182292
2022-08-03,68.9216667
2022-08-04,68.9125